Regional Weather Roundup
Issued by NWS Albany, NY

Home | Current Version | Previous Version | Text Only | Print | Product List | Glossary On
Versions: 1 2 3 4 5 6 7 8 9 10 11 12 13 14 15 16 17 18 19 20 21 22 23 24 25 26 27 28 29 30 31 32 33 34 35 36 37 38 39 40 41 42 43 44 45 46 47 48 49 50
000
ASUS41 KALY 110610
RWRALY

NEW YORK STATE HOURLY WEATHER ROUNDUP
NATIONAL WEATHER SERVICE ALBANY NY
100 AM EST SUN DEC 11 2016

NOTE: "FAIR" INDICATES FEW OR NO CLOUDS BELOW 12,000 FEET WITH NO
SIGNIFICANT WEATHER AND/OR NO OBSTRUCTIONS TO VISIBILITY.

NYZ032-033-038>043-046>054-057>066-NYZ062>081-082-084-110700-
EAST


CITY           SKY/WX    TMP DP  RH WIND       PRES   REMARKS
ALBANY         FLURRIES  18  13  80 CALM      30.42S
GLENS FALLS    CLEAR     14   6  70 CALM      30.40F
POUGHKEEPSIE   CLEAR     18  15  88 CALM      30.44S
NEWBURGH       CLEAR     21  21 100 CALM      30.44S
MONTGOMERY     CLEAR     17  14  88 CALM      30.43S
WHITE PLAINS   CLEAR     26  19  74 W7        30.42S WCI  18
ISLIP          CLEAR     24  18  77 W5        30.45S WCI  18
NEW YORK CITY  PTCLDY    32  17  54 NW13      30.47R WCI  22
CENTRAL PARK     N/A     29  16  58 CALM      30.48R
$$

NYZ005>009-017-018-044>046-055-056-110700-
CENTRAL


CITY           SKY/WX    TMP DP  RH WIND       PRES   REMARKS
FULTON         HVY SNOW  22  20  92 SW8       30.38R VSB 1/4 WCI  12
SYRACUSE       MOCLDY    22  13  68 SW8       30.37S WCI  12
ROME           CLOUDY    20  18  92 E5        30.40S WCI  13
ELMIRA         CLOUDY    15  11  83 CALM      30.40S
BINGHAMTON     CLOUDY    16  13  88 SW8       30.33S WCI   5
MONTICELLO     PTCLDY    18  16  93 W3        30.37S
$$

NYZ026>034-041>043-087-110700-
NORTH


CITY           SKY/WX    TMP DP  RH WIND       PRES   REMARKS
WATERTOWN      CLOUDY    24  21  88 S6        30.36S WCI  17
FORT DRUM      NOT AVBL
OGDENSBURG     MOCLDY    17  15  93 CALM      30.37S
MASSENA        MOCLDY    10   4  76 CALM      30.40S
SARANAC LAKE   CLOUDY    -7 -12  79 CALM      30.26F
PLATTSBURGH    PTCLDY    12   8  84 SW3       30.40R
$$

NYZ001>004-010>016-019>021-085-110700-
WEST


CITY           SKY/WX    TMP DP  RH WIND       PRES   REMARKS
NIAGARA FALLS  CLOUDY    26  15  63 W10       30.37S WCI  16
BUFFALO        CLOUDY    25  19  78 S8        30.37F WCI  16
DUNKIRK        FLURRIES  23  17  78 S10       30.39F WCI  12
JAMESTOWN      CLOUDY    18  12  79 SW9       30.32S WCI   6
WELLSVILLE     CLOUDY    18  12  77 SW9       30.31S WCI   7
ROCHESTER      CLOUDY    23  15  71 SW8       30.38S WCI  14
PENN YAN       FLURRIES  22  14  71 SW7       30.38S WCI  13
$$

             KEY
       WCI = WIND CHILL INDEX
       VSB = VISIBILITY
       HX  = HEAT INDEX
$$



USA.gov is the U.S. government's official web portal to all federal, state and local government web resources and services.